Hourly Weather Ruzha

Today, 20 April, Tuesday

Time Temperature Precipitation Wind Pressure Humidity
00:00 +8°C° 0.2 mm 2 mps 736 mmHg 83%
01:00 +8°C° 0.2 mm 1 mps 735 mmHg 83%
02:00 +8°C° 0.2 mm 1 mps 735 mmHg 83%
03:00 +8°C° 0.1 mm 1 mps 735 mmHg 84%
04:00 +6°C° 0.1 mm 2 mps 735 mmHg 85%
05:00 +6°C° 0.1 mm 2 mps 735 mmHg 86%
06:00 +7°C° 0 mm 2 mps 735 mmHg 81%
07:00 +7°C° 0 mm 2 mps 735 mmHg 77%
08:00 +8°C° 0 mm 3 mps 735 mmHg 72%
09:00 +9°C° 0.2 mm 3 mps 735 mmHg 65%
10:00 +10°C° 0.2 mm 2 mps 735 mmHg 59%
11:00 +12°C° 0.2 mm 2 mps 735 mmHg 52%
12:00 +13°C° 0.1 mm 2 mps 734 mmHg 49%
13:00 +14°C° 0.1 mm 2 mps 734 mmHg 46%
14:00 +14°C° 0.1 mm 2 mps 734 mmHg 42%
15:00 +14°C° 0.1 mm 2 mps 734 mmHg 44%
16:00 +13°C° 0.1 mm 3 mps 734 mmHg 46%
17:00 +13°C° 0.1 mm 3 mps 733 mmHg 48%
18:00 +11°C° 0.1 mm 3 mps 734 mmHg 56%
19:00 +10°C° 0.1 mm 2 mps 734 mmHg 63%
20:00 +9°C° 0.1 mm 2 mps 734 mmHg 71%
21:00 +8°C° 0 mm 2 mps 734 mmHg 73%
22:00 +9°C° 0 mm 1 mps 735 mmHg 75%
23:00 +9°C° 0 mm 1 mps 735 mmHg 77%

Tomorrow, 21 April, Wednesday

Time Temperature Precipitation Wind Pressure Humidity
00:00 +8°C° 0 mm 1 mps 735 mmHg 78%
01:00 +8°C° 0 mm 1 mps 735 mmHg 79%
02:00 +8°C° 0 mm 1 mps 735 mmHg 81%
03:00 +8°C° 0 mm 1 mps 735 mmHg 82%
04:00 +7°C° 0 mm 1 mps 735 mmHg 83%
05:00 +7°C° 0 mm 1 mps 735 mmHg 85%
06:00 +7°C° 0 mm 2 mps 735 mmHg 81%
07:00 +8°C° 0 mm 2 mps 736 mmHg 77%
08:00 +9°C° 0 mm 2 mps 736 mmHg 73%
09:00 +10°C° 0.3 mm 2 mps 736 mmHg 68%
10:00 +11°C° 0.3 mm 3 mps 736 mmHg 62%
11:00 +13°C° 0.3 mm 3 mps 736 mmHg 56%
12:00 +13°C° 0.5 mm 4 mps 736 mmHg 54%
13:00 +14°C° 0.5 mm 4 mps 736 mmHg 51%
14:00 +14°C° 0.5 mm 4 mps 736 mmHg 48%
15:00 +14°C° 0.2 mm 4 mps 736 mmHg 50%
16:00 +14°C° 0.2 mm 3 mps 736 mmHg 53%
17:00 +14°C° 0.2 mm 3 mps 736 mmHg 55%
18:00 +13°C° 0.2 mm 2 mps 736 mmHg 60%
19:00 +12°C° 0.2 mm 2 mps 736 mmHg 65%
20:00 +10°C° 0.2 mm 2 mps 736 mmHg 70%
21:00 +9°C° 0 mm 2 mps 736 mmHg 71%
22:00 +9°C° 0 mm 2 mps 737 mmHg 72%
23:00 +9°C° 0 mm 2 mps 737 mmHg 74%

Day after tomorrow, 22 April, Thursday

Time Temperature Precipitation Wind Pressure Humidity
00:00 +8°C° 0 mm 2 mps 737 mmHg 75%
01:00 +8°C° 0 mm 2 mps 737 mmHg 77%
02:00 +7°C° 0 mm 2 mps 737 mmHg 78%
03:00 +7°C° 0 mm 2 mps 737 mmHg 79%
04:00 +7°C° 0 mm 2 mps 737 mmHg 79%
05:00 +7°C° 0 mm 2 mps 737 mmHg 79%
06:00 +8°C° 0 mm 2 mps 737 mmHg 76%
07:00 +9°C° 0 mm 2 mps 738 mmHg 73%
08:00 +11°C° 0 mm 3 mps 738 mmHg 70%
09:00 +12°C° 0 mm 3 mps 738 mmHg 64%
10:00 +14°C° 0 mm 4 mps 738 mmHg 58%
11:00 +15°C° 0 mm 4 mps 738 mmHg 51%
12:00 +16°C° 0 mm 5 mps 738 mmHg 49%
13:00 +16°C° 0 mm 5 mps 737 mmHg 46%
14:00 +17°C° 0 mm 5 mps 737 mmHg 44%
15:00 +16°C° 0.1 mm 5 mps 737 mmHg 48%
16:00 +16°C° 0.1 mm 5 mps 737 mmHg 51%
17:00 +15°C° 0.1 mm 4 mps 736 mmHg 55%
18:00 +14°C° 0.4 mm 4 mps 737 mmHg 62%
19:00 +12°C° 0.4 mm 3 mps 737 mmHg 69%
20:00 +12°C° 0.4 mm 2 mps 737 mmHg 76%
21:00 +10°C° 0 mm 2 mps 737 mmHg 77%
22:00 +10°C° 0 mm 2 mps 737 mmHg 77%
23:00 +9°C° 0 mm 2 mps 737 mmHg 78%

23 April, Friday

Time Temperature Precipitation Wind Pressure Humidity
00:00 +8°C° 0 mm 2 mps 737 mmHg 81%
01:00 +9°C° 0 mm 1 mps 737 mmHg 85%
02:00 +8°C° 0 mm 1 mps 736 mmHg 88%
03:00 +8°C° 0 mm 1 mps 736 mmHg 88%
04:00 +8°C° 0 mm 1 mps 736 mmHg 88%
05:00 +6°C° 0 mm 2 mps 736 mmHg 87%
06:00 +7°C° 0 mm 3 mps 736 mmHg 87%
07:00 +6°C° 0 mm 4 mps 737 mmHg 87%
08:00 +6°C° 0 mm 5 mps 737 mmHg 87%
09:00 +5°C° 0.3 mm 5 mps 738 mmHg 89%
10:00 +3°C° 0.3 mm 5 mps 739 mmHg 92%
11:00 +2°C° 0.3 mm 5 mps 739 mmHg 94%
12:00 +4°C° 0.8 mm 4 mps 740 mmHg 89%
13:00 +4°C° 0.8 mm 3 mps 740 mmHg 84%
14:00 +5°C° 0.8 mm 3 mps 740 mmHg 80%
15:00 +7°C° 0 mm 3 mps 740 mmHg 74%
16:00 +7°C° 0 mm 4 mps 740 mmHg 68%
17:00 +8°C° 0 mm 4 mps 739 mmHg 62%
18:00 +7°C° 0 mm 4 mps 740 mmHg 64%
19:00 +6°C° 0 mm 4 mps 740 mmHg 66%
20:00 +5°C° 0 mm 4 mps 741 mmHg 68%
21:00 +4°C° 0 mm 3 mps 741 mmHg 72%
22:00 +3°C° 0 mm 3 mps 741 mmHg 76%
23:00 +3°C° 0 mm 2 mps 742 mmHg 80%

24 April, Saturday

Time Temperature Precipitation Wind Pressure Humidity
00:00 +3°C° 0 mm 2 mps 742 mmHg 83%
01:00 +1°C° 0 mm 3 mps 742 mmHg 85%
02:00 +1°C° 0 mm 3 mps 742 mmHg 88%
03:00 0°C° 0 mm 3 mps 742 mmHg 88%
04:00 0°C° 0 mm 3 mps 742 mmHg 88%
05:00 0°C° 0 mm 3 mps 742 mmHg 88%
06:00 +1°C° 0 mm 3 mps 742 mmHg 82%
07:00 +3°C° 0 mm 3 mps 742 mmHg 75%
08:00 +4°C° 0 mm 4 mps 742 mmHg 69%
09:00 +5°C° 0 mm 4 mps 742 mmHg 63%
10:00 +6°C° 0 mm 4 mps 742 mmHg 57%
11:00 +8°C° 0 mm 4 mps 742 mmHg 51%
12:00 +8°C° 0 mm 4 mps 742 mmHg 48%
13:00 +10°C° 0 mm 4 mps 741 mmHg 45%
14:00 +11°C° 0 mm 3 mps 741 mmHg 42%
15:00 +11°C° 0 mm 3 mps 741 mmHg 42%
16:00 +11°C° 0 mm 3 mps 740 mmHg 42%
17:00 +11°C° 0 mm 3 mps 740 mmHg 42%
18:00 +10°C° 0 mm 2 mps 740 mmHg 47%
19:00 +9°C° 0 mm 2 mps 740 mmHg 52%
20:00 +9°C° 0 mm 1 mps 740 mmHg 57%
21:00 +8°C° 0 mm 2 mps 740 mmHg 59%
22:00 +7°C° 0 mm 2 mps 740 mmHg 61%
23:00 +7°C° 0 mm 2 mps 740 mmHg 63%

25 April, Sunday

Time Temperature Precipitation Wind Pressure Humidity
00:00 +5°C° 0.1 mm 3 mps 741 mmHg 70%
01:00 +5°C° 0.1 mm 4 mps 741 mmHg 77%
02:00 +3°C° 0.1 mm 5 mps 741 mmHg 84%
03:00 +4°C° 0.1 mm 4 mps 741 mmHg 84%
04:00 +4°C° 0.1 mm 4 mps 741 mmHg 83%
05:00 +4°C° 0.1 mm 4 mps 741 mmHg 82%
06:00 +4°C° 0 mm 4 mps 741 mmHg 79%
07:00 +3°C° 0 mm 5 mps 741 mmHg 77%
08:00 +3°C° 0 mm 5 mps 742 mmHg 74%
09:00 +3°C° 0 mm 5 mps 742 mmHg 64%
10:00 +5°C° 0 mm 5 mps 742 mmHg 53%
11:00 +6°C° 0 mm 5 mps 743 mmHg 43%
12:00 +7°C° 0 mm 6 mps 742 mmHg 41%
13:00 +8°C° 0 mm 6 mps 742 mmHg 39%
14:00 +8°C° 0 mm 6 mps 742 mmHg 36%
15:00 +8°C° 0 mm 6 mps 742 mmHg 38%
16:00 +8°C° 0 mm 6 mps 742 mmHg 39%
17:00 +7°C° 0 mm 6 mps 742 mmHg 41%
18:00 +6°C° 0 mm 5 mps 743 mmHg 48%
19:00 +5°C° 0 mm 4 mps 743 mmHg 55%
20:00 +4°C° 0 mm 3 mps 743 mmHg 62%
21:00 +4°C° 0 mm 2 mps 743 mmHg 66%
22:00 +3°C° 0 mm 2 mps 744 mmHg 69%
23:00 +3°C° 0 mm 2 mps 744 mmHg 72%
Show more